Погода в Сорё

Дания     55°26′32″N   11°33′56″E
темп.,
°C
ветер,
м/с
пор.,
м/с
влажн.,
%
обл.,
%
осадки,
мм/ч
давл.,
гПа
погр.,
м
14 апреля, ср
ср1423:00+3зсз49795 0.1 1026309
02:00+2зсз37865 0.1 1026170
05:00+1зсз22925 0.0 102635
08:00+3сз23833 0.0 1027153
11:00+7ссв33495 0.0 10271402
14:00+8ссв553926 0.1 10272026
17:00+7ссв55410 0.0 10271331
20:00+4с36651 0.0 1029143
15 апреля, чт
чт1523:00+3с247634 0.0 102972
02:00+2св36756 0.0 103099
05:00+1св2278100 0.0 103122
08:00+3ссв3573100 0.0 1032177
11:00+7ссв5751100 0.0 10321088
14:00+8ссв6748100 0.0 10321430
17:00+8ссв685061 0.0 10311299
20:00+5с5117537 0.0 1031331
16 апреля, пт
пт1623:00+3св498437 0.0 1031179
02:00+2ссв4106753 0.0 1031177
05:00+1св4106894 0.0 1031234
08:00+3св5106628 0.0 1031331
11:00+8св574875 0.0 1031926
14:00+10ссв564594 0.0 10301372
17:00+10ссв5549100 0.0 1030808
20:00+6ссз4970100 0.0 1029258
17 апреля, сб
сб1723:00+4в238457 0.0 102945
02:00+3ссв2274100 0.0 102912
05:00+1св37665 0.0 1029115
08:00+5св4964100 0.0 1028353
11:00+9св465627 0.0 1029790
14:00+10всв4553100 0.0 1028909
17:00+11св345554 0.0 10281122
20:00+8ссв4669100 0.0 1028209
18 апреля, вс
вс1823:00+5св227588 0.0 102832
02:00+7с2266100 0.0 102720
05:00+5всв22815 0.0 102724
08:00+6св357392 0.0 1026172
11:00+8всв2470100 0.0 1026396
14:00+11в4670100 0.1 1026849
17:00+13ссв436130 0.0 1024726
20:00+9ссв3673100 0.0 1025188